Home > Weather > Dubai > Past weeks

Flag for United Arab Emirates Weather for the Past 2 Weeks in Dubai, Dubai, United Arab Emirates

Now
63 °F

Clear.


Feels Like: 63 °F
Forecast: 62 / 73 °F
Wind: 3 mph from South

Location: Dubai International Airport

Current Time: Feb 14, 2016 at 6:50:37 AM

Latest Report: Feb 14, 2016 at 6:00 AM


Visibility: 10 mi

Pressure: 30.09 "Hg

Humidity: 73%

Dew point: 54 °F

Location of DubaiLocation

Historic Weather in Dubai — Graph

°F

Dubai Temperature Yesterday

Maximum temperature yesterday: 72 °F (at 11:00 AM)
Minimum temperature yesterday: 61 °F (at 5:00 AM)
Average temperature yesterday: 67 °F

High & Low Weather Summary for the Past Weeks

 TemperatureHumidityPressure
High81 °F (Feb 8, 2:00 PM)77% (Feb 3, 5:00 AM)30.27 "Hg (Feb 3, 5:00 AM)
Low57 °F (Jan 31, 7:00 AM)12% (Feb 8, 2:00 PM)29.95 "Hg (Feb 11, 2:00 PM)
Average67 °F55%30.10 "Hg
* Reported Jan 30 5:00 AM — Feb 14 5:00 AM, Dubai, Weather by CustomWeather, © 2016

Note: Actual official high and low records may vary slightly from our data, if they occured in-between our weather recording intervals... More about our weather records

Advertising

Dubai Weather History for the Previous 24 Hours

 ConditionsComfort  
Time TempWeatherWind HumidityBarometerVisibility
5:00 AM
Sun, Feb 14
63 °FClear.3 mph73%30.07 "Hg10 mi
4:00 AM63 °FPassing clouds.6 mph73%30.07 "HgN/A
3:00 AM66 °FClear.6 mph73%30.07 "Hg10 mi
2:00 AM66 °FPassing clouds.7 mph68%30.07 "HgN/A
1:00 AM66 °FPassing clouds.6 mph68%30.09 "HgN/A
12:00 AM68 °FPassing clouds.5 mph69%30.09 "HgN/A
11:00 PM
Sat, Feb 13
68 °FPassing clouds.6 mph69%30.09 "HgN/A
10:00 PM68 °FPassing clouds.3 mph69%30.09 "HgN/A
9:00 PM68 °FPassing clouds.6 mph69%30.09 "HgN/A
8:00 PM68 °FPassing clouds.7 mph69%30.09 "HgN/A
7:00 PM68 °FPassing clouds.10 mph69%30.07 "HgN/A
6:00 PM68 °FPassing clouds.10 mph69%30.04 "HgN/A
5:00 PM70 °FScattered clouds.13 mph64%30.04 "HgN/A
4:00 PM72 °FScattered clouds.12 mph57%30.04 "HgN/A
3:00 PM72 °FScattered clouds.10 mph57%30.04 "HgN/A
2:00 PM72 °FScattered clouds.12 mph57%30.07 "HgN/A
1:00 PM72 °FScattered clouds.9 mph57%30.07 "HgN/A
12:00 PM72 °FScattered clouds.6 mph53%30.09 "HgN/A
11:00 AM72 °FScattered clouds.3 mph53%30.12 "HgN/A
10:00 AM68 °FPassing clouds.5 mph60%30.12 "HgN/A
9:00 AM64 °FPassing clouds.6 mph64%30.12 "HgN/A
8:00 AM61 °FPassing clouds.6 mph72%30.09 "HgN/A
7:00 AM61 °FPassing clouds.7 mph72%30.09 "HgN/A
6:00 AM61 °FPassing clouds.5 mph72%30.07 "HgN/A
Weather by CustomWeather, © 2016

See weather overviewHow to use our weather pages